Wind_Speed
11 8 7 8 8 8 8 9 8 6 6 7 7 7 7 6 6 7 7 7 7 7 7 7 7 8 8 8 8 8 8 8 7 7 8 9 9 9 9 9 9 9 9
12 12 10 9 9 10 10 10 9 7 7 8 8 8 9 8 7 7 8 9 8 8 8 7 8 9 9 8 9 9 9 9 9 9 10 10 10 10 10 10 10 9 9
12 13 11 11 11 11 11 11 9 9 8 9 9 10 10 9 9 9 9 9 9 9 8 8 8 9 9 9 10 10 10 11 11 11 11 11 11 11 11 11 11 11 11
12 12 12 13 12 12 12 11 10 10 10 10 10 9 9 10 10 10 9 10 10 10 10 9 9 9 9 9 10 10 11 12 13 13 12 12 12 11 11 11 11 11 11
12 12 13 13 13 13 12 11 11 11 11 10 10 10 10 10 10 10 10 10 11 11 11 11 10 10 10 10 9 10 11 12 12 12 12 12 12 11 11 11 11 12 11
13 13 13 14 13 13 12 11 11 12 12 11 12 10 10 10 10 11 11 11 11 11 11 11 12 11 11 11 11 11 11 12 12 12 12 12 12 11 11 12 12 12 12
15 15 15 15 14 14 12 11 12 12 12 12 12 11 11 11 11 12 13 13 13 12 12 11 11 12 12 12 12 12 12 11 12 12 12 13 13 13 13 13 13 13 13
15 15 14 14 15 15 14 14 13 13 13 13 13 12 12 12 13 13 13 14 14 14 14 14 13 12 13 13 14 13 13 13 13 13 14 14 14 13 13 14 14 14 14
15 13 12 13 14 15 15 15 14 14 15 14 14 14 14 14 14 15 15 15 15 15 14 14 15 14 14 15 15 15 14 14 14 14 14 15 15 15 14 14 15 15 15
15 14 14 15 16 15 15 15 15 15 16 16 16 16 16 16 16 16 16 15 15 15 14 15 15 16 16 16 16 16 15 15 15 15 15 15 15 15 15 15 15 15 16
15 15 15 16 16 16 16 17 17 17 16 17 17 18 18 17 17 17 17 16 17 16 16 16 16 17 18 18 18 18 17 17 16 16 16 16 16 16 16 16 16 16 15
17 16 17 17 17 17 17 17 17 16 16 17 18 19 19 19 19 18 19 19 19 18 18 19 19 19 20 20 19 19 19 19 18 18 18 18 18 17 17 17 17 17 16
18 18 18 18 18 17 18 18 19 18 17 18 19 19 19 19 19 19 20 20 20 21 21 21 20 21 22 22 21 21 21 21 21 20 20 20 19 19 18 18 17 17 17
19 19 20 20 20 20 20 20 20 20 20 20 20 20 21 20 19 19 20 20 21 21 22 23 22 22 23 24 23 23 23 23 23 22 22 21 20 20 20 19 19 18 18
22 23 22 22 22 22 22 22 22 22 22 22 22 21 21 21 21 21 22 22 23 23 23 23 23 23 24 25 25 25 24 23 24 24 23 23 22 22 21 21 20 20 19
25 25 24 24 24 24 23 23 24 24 23 23 23 23 23 22 22 22 23 23 23 24 25 25 25 25 25 25 26 26 26 25 24 25 25 25 24 23 22 22 22 21 21
26 26 26 26 25 24 24 24 24 25 25 24 24 25 25 23 23 23 24 24 24 25 25 26 26 27 27 26 26 26 27 26 26 26 26 26 25 25 24 24 23 23 23
27 26 26 25 25 25 25 25 25 25 25 25 26 26 25 24 24 25 25 26 26 26 26 26 27 27 27 27 27 28 28 27 26 26 26 26 26 26 25 25 25 24 24
26 26 26 26 26 26 26 26 26 26 25 25 26 27 26 25 25 25 26 26 26 26 27 27 28 28 28 28 27 27 27 27 28 28 27 27 26 26 26 26 26 25 25
27 26 26 26 26 26 26 26 27 26 25 26 27 27 27 27 27 27 26 26 26 26 27 27 28 28 28 28 28 27 27 28 28 28 28 28 27 27 27 26 26 26 26
28 27 27 27 28 28 28 27 27 27 27 27 26 26 26 27 27 28 27 26 27 28 28 28 28 28 28 27 28 28 27 27 27 27 28 28 28 27 27 27 27 27 26
30 29 29 29 29 29 29 28 27 27 27 27 27 26 26 26 27 28 27 27 27 27 27 27 27 27 27 27 27 27 26 26 27 26 27 27 27 27 28 28 28 28 27
31 31 31 30 29 29 29 28 26 27 27 27 27 27 27 27 28 28 27 27 26 26 26 26 26 26 26 25 26 26 27 27 27 26 26 26 26 27 26 27 27 27 27
31 32 31 30 29 29 29 29 29 28 28 28 28 28 29 28 28 29 28 27 26 26 26 26 25 25 26 26 26 26 26 26 26 26 25 25 25 25 25 25 26 26 26
32 31 30 31 31 31 30 30 30 29 29 29 28 29 29 29 29 29 28 28 27 27 26 26 26 25 26 26 26 26 26 26 26 26 26 26 26 26 26 26 26 26 26
31 32 31 32 32 32 31 31 31 29 29 29 29 29 29 29 29 28 27 27 27 26 26 26 26 26 26 26 26 25 26 26 27 26 25 26 26 26 27 27 28 28 28
Wind_Direction
308 302 300 299 299 302 308 309 305 291 291 292 288 283 282 282 284 287 292 295 295 302 305 295 286 278 274 272 271 267 272 279 281 283 286 287 287 287 288 283 279 280 279
309 306 300 293 295 297 301 305 296 285 293 290 285 281 278 275 276 279 284 290 293 294 300 297 288 281 277 272 270 270 272 276 279 280 283 287 288 289 288 284 281 284 284
302 300 296 292 293 294 295 299 301 291 294 292 286 280 277 278 276 278 276 279 283 288 291 291 288 281 276 275 271 270 270 275 279 281 283 284 289 291 287 282 280 281 283
298 296 292 287 287 289 292 296 297 297 295 290 285 279 277 276 277 277 275 277 280 283 286 288 287 282 276 277 275 273 274 277 278 278 280 281 282 285 287 284 283 283 283
294 295 287 280 283 287 290 290 290 293 294 289 281 278 280 276 275 279 280 278 277 279 279 280 285 283 278 278 281 281 282 280 281 279 278 279 280 282 282 284 285 283 281
293 291 280 276 280 283 287 285 288 288 288 286 282 282 282 277 275 279 280 278 278 280 278 281 281 284 281 280 279 281 284 281 280 279 281 281 279 281 283 282 284 282 280
287 288 284 276 276 276 281 282 284 284 282 283 283 286 283 279 279 280 280 279 278 276 276 276 277 281 282 283 284 282 283 282 283 284 285 283 279 280 279 278 279 281 278
284 286 285 282 281 278 277 285 283 281 280 281 280 282 285 279 279 279 279 278 277 274 273 272 273 277 279 280 282 281 279 280 282 284 286 287 284 282 279 278 277 277 277
283 282 284 287 288 283 281 283 287 284 282 281 279 279 281 279 279 280 278 277 276 272 271 273 271 273 275 278 280 281 278 278 280 282 282 282 282 282 280 279 277 275 274
281 284 282 287 286 282 281 280 285 283 282 280 277 279 279 277 278 279 277 274 274 271 272 275 275 272 273 274 276 279 278 278 280 281 282 280 279 278 278 279 280 278 276
278 283 285 286 286 281 279 280 283 283 280 279 278 278 279 277 276 275 273 271 271 270 271 273 275 272 272 273 273 274 275 278 280 280 280 278 276 276 276 277 277 279 277
276 281 284 285 285 283 280 278 280 281 281 279 279 278 277 275 274 272 269 270 270 270 272 273 275 274 272 272 273 273 273 275 276 278 278 277 277 277 275 274 274 275 274
276 279 281 283 284 284 282 279 277 277 279 279 280 278 276 275 272 268 267 270 271 272 273 273 273 274 274 272 273 275 275 274 274 275 275 275 274 274 275 274 274 274 274
275 276 278 281 282 282 282 283 280 276 276 278 278 277 275 276 272 270 273 271 272 274 275 275 274 276 276 273 273 276 275 273 272 271 272 272 272 273 273 272 273 274 274
273 276 277 278 280 281 282 282 282 280 278 278 278 278 276 274 271 270 274 272 272 273 274 276 276 277 277 275 275 275 275 273 271 268 268 269 271 273 272 270 271 271 272
273 275 276 275 276 277 278 281 282 281 279 277 277 277 276 274 271 272 275 276 275 274 275 275 277 278 278 277 277 275 273 272 271 268 266 266 267 269 270 269 269 270 269
275 275 274 274 274 274 276 277 278 279 280 279 279 279 277 274 272 272 274 276 275 275 277 277 279 280 280 279 277 275 274 273 270 267 266 265 266 266 267 269 267 268 269
276 275 274 273 276 277 277 277 277 278 279 280 278 279 277 274 274 274 274 276 276 276 277 278 278 278 279 280 278 276 273 272 271 269 267 266 265 264 265 266 266 268 267
274 274 275 276 276 276 276 276 277 278 279 280 280 280 277 275 274 275 274 276 277 277 278 279 280 279 278 279 278 277 274 272 271 269 266 266 265 264 265 265 264 265 267
270 272 274 275 276 275 276 278 278 278 279 280 279 279 277 276 276 276 275 275 276 277 279 279 279 278 278 277 276 277 275 273 271 269 266 265 264 264 265 264 263 264 264
269 270 271 274 276 276 277 278 277 278 279 280 279 278 277 277 277 278 278 276 277 279 279 278 278 277 278 277 275 276 276 275 272 270 267 265 263 262 263 263 263 264 264
271 271 271 272 274 276 276 276 275 275 276 277 277 276 275 277 278 279 278 277 278 279 279 278 277 276 278 276 274 274 275 276 275 272 270 267 263 262 262 263 262 263 264
270 270 270 272 273 274 276 273 274 274 274 274 275 275 275 276 278 278 277 277 278 278 278 279 279 279 279 278 274 273 273 273 273 271 270 267 264 262 261 261 262 264 263
270 270 270 271 273 274 275 275 274 273 272 274 274 274 275 276 278 278 276 275 276 277 278 279 279 278 278 278 276 273 272 271 270 268 266 265 263 262 261 260 262 263 262
271 269 269 271 272 273 273 274 274 273 272 273 274 274 274 275 277 278 276 276 276 276 277 277 277 278 278 277 277 273 270 269 268 268 267 263 262 261 261 262 263 263 263
272 271 271 271 272 272 271 272 274 273 272 273 274 274 274 274 275 276 276 277 277 277 277 278 277 278 279 278 276 274 270 268 267 267 267 265 263 262 262 263 264 265 264
Height
5883 5883 5882 5882 5882 5881 5880 5880 5879 5878 5878 5878 5878 5877 5877 5877 5877 5876 5876 5875 5874 5873 5872 5872 5871 5871 5870 5870 5869 5869 5869 5868 5868 5868 5868 5867 5866 5865 5865 5864 5863 5863 5862
5881 5880 5880 5880 5879 5879 5878 5877 5876 5876 5875 5875 5875 5875 5875 5874 5874 5874 5873 5873 5872 5871 5870 5869 5869 5868 5867 5867 5867 5867 5866 5866 5866 5866 5865 5864 5864 5863 5862 5862 5861 5860 5859
5878 5877 5877 5876 5876 5876 5875 5875 5874 5873 5873 5872 5872 5872 5872 5872 5872 5872 5871 5870 5869 5869 5868 5867 5866 5866 5865 5865 5864 5864 5864 5863 5863 5863 5863 5862 5861 5861 5860 5859 5858 5858 5857
5875 5874 5874 5873 5872 5872 5872 5872 5871 5871 5871 5870 5869 5869 5869 5869 5869 5869 5868 5868 5867 5866 5865 5865 5864 5863 5862 5862 5861 5861 5860 5860 5859 5859 5859 5859 5858 5858 5857 5856 5855 5855 5854
5872 5871 5870 5870 5869 5868 5868 5867 5868 5868 5868 5867 5866 5866 5866 5866 5866 5866 5865 5865 5864 5863 5863 5862 5861 5860 5859 5859 5858 5858 5857 5856 5856 5855 5855 5855 5855 5854 5854 5853 5852 5852 5851
5868 5867 5867 5866 5865 5864 5863 5863 5864 5864 5864 5864 5863 5863 5862 5863 5863 5863 5862 5862 5861 5860 5860 5859 5858 5857 5857 5856 5855 5854 5854 5853 5853 5852 5852 5851 5851 5850 5850 5850 5849 5848 5847
5864 5863 5863 5862 5861 5860 5860 5860 5860 5861 5861 5861 5860 5860 5860 5860 5859 5859 5859 5858 5858 5857 5856 5855 5855 5854 5853 5853 5852 5851 5850 5850 5849 5849 5848 5848 5847 5847 5846 5846 5845 5845 5844
5859 5858 5858 5857 5857 5856 5856 5856 5856 5857 5857 5857 5857 5856 5856 5856 5856 5855 5855 5854 5854 5853 5853 5852 5851 5851 5850 5849 5849 5848 5847 5846 5846 5845 5844 5844 5843 5843 5842 5842 5841 5841 5840
5854 5855 5854 5854 5853 5853 5853 5853 5852 5852 5852 5852 5853 5853 5852 5852 5852 5851 5850 5850 5850 5849 5848 5848 5847 5847 5846 5846 5845 5844 5843 5843 5842 5841 5840 5840 5839 5838 5838 5837 5837 5837 5836
5850 5850 5851 5851 5850 5850 5849 5848 5848 5847 5848 5848 5848 5847 5847 5847 5847 5846 5846 5846 5845 5845 5844 5844 5843 5842 5841 5841 5840 5839 5839 5838 5837 5837 5836 5835 5834 5834 5833 5833 5832 5832 5832
5846 5846 5846 5846 5846 5845 5845 5844 5844 5844 5843 5843 5842 5842 5842 5841 5841 5841 5841 5841 5840 5839 5839 5839 5838 5837 5837 5836 5835 5835 5834 5833 5833 5832 5831 5831 5830 5829 5828 5828 5828 5827 5827
5841 5841 5841 5841 5841 5841 5840 5840 5840 5839 5838 5838 5837 5837 5836 5836 5835 5835 5835 5835 5834 5834 5833 5833 5832 5832 5831 5830 5830 5829 5828 5828 5828 5827 5826 5825 5825 5824 5823 5823 5823 5822 5822
5835 5836 5836 5836 5835 5835 5835 5835 5835 5834 5833 5833 5832 5831 5830 5830 5829 5829 5828 5828 5828 5827 5827 5827 5826 5826 5825 5824 5823 5823 5823 5822 5822 5821 5821 5820 5819 5819 5818 5818 5817 5817 5817
5830 5830 5830 5830 5830 5830 5829 5829 5828 5828 5827 5826 5826 5825 5824 5823 5823 5823 5822 5821 5821 5821 5821 5820 5820 5819 5818 5817 5816 5816 5815 5815 5815 5814 5814 5814 5813 5813 5812 5812 5812 5811 5811
5824 5824 5824 5823 5823 5823 5823 5822 5822 5821 5821 5820 5819 5818 5818 5817 5817 5816 5815 5815 5814 5814 5813 5813 5812 5812 5811 5810 5809 5809 5808 5808 5807 5807 5807 5807 5807 5806 5806 5806 5806 5806 5805
5817 5817 5817 5817 5816 5816 5816 5815 5815 5814 5813 5812 5812 5811 5811 5810 5809 5809 5808 5808 5807 5807 5806 5805 5805 5804 5803 5802 5801 5801 5800 5799 5799 5799 5799 5799 5799 5800 5799 5799 5799 5799 5799
5809 5809 5809 5809 5808 5808 5808 5808 5807 5807 5806 5805 5804 5803 5803 5802 5802 5802 5801 5801 5800 5799 5799 5798 5797 5796 5795 5794 5793 5792 5792 5791 5791 5791 5791 5791 5792 5792 5792 5792 5792 5792 5791
5802 5801 5801 5801 5800 5800 5800 5800 5799 5799 5798 5797 5796 5796 5794 5794 5795 5794 5794 5793 5792 5792 5791 5790 5789 5788 5787 5786 5785 5784 5783 5783 5783 5782 5782 5783 5783 5784 5784 5784 5785 5785 5784
5794 5793 5794 5794 5793 5792 5793 5792 5791 5790 5790 5789 5789 5788 5788 5787 5787 5786 5786 5785 5784 5783 5782 5782 5780 5779 5778 5777 5776 5775 5775 5774 5774 5774 5774 5774 5774 5775 5775 5776 5777 5777 5777
5787 5787 5786 5785 5785 5784 5785 5785 5784 5783 5782 5781 5781 5780 5780 5779 5779 5778 5777 5777 5776 5775 5774 5773 5772 5771 5770 5768 5767 5767 5766 5766 5766 5766 5766 5766 5766 5767 5767 5768 5769 5769 5769
5779 5779 5778 5777 5777 5776 5776 5776 5775 5775 5774 5773 5772 5772 5772 5771 5771 5770 5769 5768 5767 5767 5765 5764 5763 5762 5760 5759 5758 5758 5757 5757 5756 5756 5756 5757 5757 5758 5759 5760 5760 5761 5761
5771 5770 5769 5769 5768 5768 5767 5767 5767 5766 5765 5765 5764 5764 5763 5763 5762 5762 5761 5760 5759 5758 5756 5755 5754 5752 5751 5750 5749 5749 5748 5748 5748 5748 5748 5748 5748 5749 5750 5751 5751 5752 5752
5762 5761 5761 5760 5759 5759 5758 5757 5757 5757 5757 5756 5756 5755 5755 5754 5754 5753 5752 5751 5750 5749 5748 5746 5745 5744 5743 5741 5741 5740 5740 5740 5740 5740 5739 5740 5740 5740 5741 5742 5743 5743 5744
5752 5752 5752 5751 5751 5750 5749 5749 5748 5748 5748 5748 5747 5746 5746 5745 5744 5744 5743 5742 5741 5740 5739 5738 5737 5736 5735 5734 5733 5732 5732 5731 5731 5731 5731 5732 5732 5732 5733 5734 5735 5735 5736
5743 5742 5742 5742 5741 5741 5741 5740 5739 5738 5739 5738 5738 5737 5737 5736 5735 5735 5734 5733 5732 5731 5731 5730 5729 5728 5727 5726 5725 5724 5723 5723 5723 5723 5723 5723 5724 5724 5725 5726 5726 5727 5728
5732 5733 5732 5732 5732 5731 5731 5730 5729 5729 5729 5729 5728 5728 5727 5727 5726 5726 5725 5724 5724 5723 5722 5721 5720 5719 5718 5717 5716 5715 5715 5714 5714 5714 5714 5715 5715 5716 5716 5717 5718 5718 5719